Location: *
(48.8780°N, 19.2358°E)
Time: 21:31:01
(UTC+00:00)

Meteor 2-10 - Pass Details

Date: 18 October 2019
Orbit: 738 x 868 km, 81.2° (Epoch: 20 November)

Event Time Altitude Azimuth Distance (km) Brightness Sun altitude
Rises 16:50:28 0° 181° (S) 3,197 7.3 -10.9°
Reaches altitude 10° 16:52:50 10° 178° (S) 2,265 6.5 -11.3°
Maximum altitude 16:57:50 65° 98° (E) 818 3.9 -12.1°
Drops below altitude 10° 17:02:50 10° 17° (NNE) 2,258 6.3 -13.0°
Sets 17:05:11 0° 15° (NNE) 3,188 7.1 -13.3°
